Location: Vaughan
(31.9146°N, 97.1736°W)
Time: 02:08:53
(UTC+00:00)

Cosmos 2263 Rocket - Pass Details

Date: 10 December 2025
Orbit: 821 x 849 km, 71.0° (Epoch: 24 January)

Event Time Altitude Azimuth Distance (km) Brightness Sun altitude
Rises 01:45:42 0° 337° (NNW) 3,405 5.5 -29.1°
Reaches altitude 10° 01:48:09 10° 336° (NNW) 2,469 4.8 -29.7°
Enters shadow 01:52:46 58° 312° (NW) 982 2.6 -30.6°
